www.pogodaiklimat.ru

Погода и климат >> Архив погоды >> Россия >> Томская область >> Степановка


ПОГОДА в Степановке

  • Прогноз погоды в Степановке
  • Монитор погоды в Степановке

АРХИВ ПОГОДЫ в Степановке

Время (UTC), дата Ветер
(напр.,м/с)
 
Видим.   Явления Облачность Т
(С)
Тd
(С)
f
(%)
Тe
(С)
Тes
(С)
Комфортность P
(гПа)
Po
(гПа)
Тmin
(С)
Tmax
(С)
R
(мм)
R24
(мм)
S
(см)
21 17.05 ЮВ 2 20 км 10/6 600 м
[Sc Ac und]
+4.1 -6.7 45 +2 +2 1016.9 1004.0
00 18.05 ЮВ 1 20 км 10/6 600 м
[Sc As op]
+5.7 -4.7 47 +5 +5 1016.9 1004.0 +1.3
03 18.05 Ю 3 20 км 10/0
[As op]
+10.5 -5.5 32 +9 +11 1015.8 1003.2
06 18.05 ЮВ 3
{11}
20 км 10/6 600 м
[Sc Ac und]
+11.8 -5.1 30 +11 +12 1014.1 1001.5
09 18.05 ЮВ 3
{11}
20 км 10/8 600 м
[Sc As op]
+11.7 -3.8 34 +11 +11 1012.0 999.4
12 18.05 Ю 2
{13}
10 км слаб. ливневой дождь 10/10 600 м
[Cb cap]
+9.4 +1.3 57 +8 +8 1011.5 998.9 +12.2 0.0
15 18.05 ЮВ 2 20 км в посл. час ливневой дождь 10/10 600 м
[Cb cap]
+7.8 +3.3 73 +6 +6 1010.0 997.3
18 18.05 ЮВ 4 20 км {ливн. осадки} 10/10 600 м
[Cb cap]
+9.6 +1.2 56 +7 +7 1007.6 995.0
21 18.05 ЮВ 3
{10}
20 км 10/10 600 м
[Cb cap]
+10.3 -0.8 46 +9 +9 1006.2 993.7
00 19.05 ЮВ 3 20 км 10/8 600 м
[Cb cap Ac und]
+11.5 +0.1 45 +10 +10 1004.6 992.2 +7.7 0.5
03 19.05 ЮВ 4
{10}
20 км 10/8 600 м
[Cb cap Ac und]
+15.0 -4.0 27 +14 +15 1001.6 989.4
06 19.05 Ю 4
{11}
20 км 10/10 600 м
[Cb cap]
+19.0 -5.1 19 +19 +19 1000.2 988.2
09 19.05 Ю 3
{12}
20 км в посл. час ливневой дождь 10/10 600 м
[Cb cap]
+16.7 +2.7 39 +17 +17 1001.1 988.9
12 19.05 Ю 2
{13}
10 км слаб. ливневой дождь 10/10 600 м
[Cb cap]
+11.4 +7.4 76 +10 +10 1002.6 990.2 +19.7 0.4
15 19.05 З 4 20 км в посл. час ливневой дождь 9/9 600 м
[Cb cap]
+9.6 +6.5 81 +7 +7 1004.3 991.8
18 19.05 ЮЗ 2 20 км {ливн. осадки} 1/1 1000 м
[Sc]
+6.1 +4.3 88 +4 +4 1006.3 993.6
21 19.05 ЮВ 1 20 км ясно +1.5 +0.8 95 -1 -1 1006.8 993.9
00 20.05 ЮВ 1 20 км ясно +4.6 +2.5 86 +3 +5 1006.8 994.1 +0.6 0.4
03 20.05 Ю 3 20 км 8/0
[Ac trans Ci fib]
+12.3 -0.8 40 +11 +17 1005.0 992.6
06 20.05 ЮВ 4 20 км 6/0
[Ci fib]
+16.1 -1.5 30 +16 +24 1001.8 989.6
09 20.05 Ю 4-11
{13}
20 км гроза без осадков {ливн. осадки} 8/8 600 м
[Cb cap]
+15.8 +1.5 38 +15 +16 1000.7 988.5
12 20.05 ЮЗ 5-10
{15}
20 км {гроза, ливн. осадки} 6/6 600 м
[Cu med, cong]
+15.6 -4.7 24 +15 +15 1000.8 988.6 +16.8 0.5
15 20.05 ЮЗ 2
{10}
20 км 3/3 600 м
[Sc]
+11.8 -4.3 32 +11 +11 1001.6 989.2
18 20.05 Ю 2 20 км 9/9 600 м
[Sc]
+8.4 -2.8 45 +7 +7 1001.0 988.5
21 20.05 ЮЗ 1 20 км 6/0
[Ac As Ci sp]
+5.9 -1.8 58 +5 +5 1000.2 987.6
00 21.05 Ю 1 20 км 4/0
[Ac As Ci sp]
+6.0 +0.1 66 +5 +7 999.0 986.4 +3.9
03 21.05 ЮЗ 2 20 км 8/5 600 м
[Cu hum Ci fib]
+11.9 +2.1 51 +11 +15 997.7 985.4
06 21.05 З 5 20 км 10/6 600 м
[Cb cap Ci sp]
+13.8 +0.2 39 +12 +15 997.5 985.2
09 21.05 З 4
{11}
20 км 8/5 600 м
[Cb cap Ci sp]
+15.1 -1.9 31 +14 +17 997.8 985.6
12 21.05 З 4
{11}
20 км 8/3 600 м
[Cb cap Ac As Ci fib]
+14.0 -2.3 32 +13 +14 998.7 986.5 +16.0
15 21.05 Ю 1 20 км 8/3 600 м
[Sc Ci fib]
+9.0 +0.3 54 +9 +9 999.1 986.7
18 21.05 З 1 20 км 8/8 600 м
[Sc]
+8.3 +1.4 62 +8 +8 999.2 986.7
21 21.05 З 2 20 км 4/4 1000 м
[Sc]
+5.6 +1.5 75 +3 +3 999.7 987.0
00 22.05 З 3 20 км 3/3 1000 м
[Sc Ac trans]
+6.2 +1.8 73 +3 +4 1001.4 988.8 +3.8
03 22.05 ЮЗ 4 20 км 8/8 600 м
[Cu Sc Ac trans]
+8.8 +2.6 65 +6 +7 1002.3 989.8
06 22.05 З 7-10
{11}
20 км 9/9 600 м
[Cu Sc]
+10.7 -1.3 43 +8 +8 1003.0 990.5
09 22.05 З 6-11
{12}
20 км 9/9 600 м
[Sc]
+11.5 -3.6 35 +9 +10 1003.2 990.8
12 22.05 СЗ 3
{11}
20 км 9/8 600 м
[Sc diur, vesp Ac cast]
+11.7 -2.3 38 +10 +11 1002.5 990.1 +12.9
15 22.05 штиль 0 20 км {ливн. осадки} 10/8 600 м
[Cb cap Ci sp]
+5.6 +4.5 93 +5 +5 1003.4 990.7
18 22.05 З 1 20 км {ливн. осадки} 9/9 600 м
[Cb cap]
+4.9 +1.9 81 +4 +4 1004.7 992.0
21 22.05 З 1 20 км 8/8 600 м
[Sc]
+2.1 -0.4 84 0 0 1006.1 993.2
00 23.05 СЗ 3 20 км 10/8 600 м
[Cb cap Ci sp]
+2.4 -1.4 76 -2 -1 1008.0 995.1 +2.0 1
03 23.05 З 3 20 км 8/8 600 м
[Sc]
+6.0 -1.8 57 +3 +5 1009.1 996.3
06 23.05 З 3 20 км 8/8 600 м
[Sc]
+9.5 -3.2 41 +8 +10 1009.7 997.1
09 23.05 З 4
{10}
20 км 8/8 600 м
[Cu hum]
+10.5 -4.0 36 +9 +10 1010.6 998.0
12 23.05 З 2 20 км 8/8 600 м
[Cu hum Ci fib]
+11.0 -3.7 35 +10 +11 1011.6 999.0 +11.2
15 23.05 штиль 0 20 км 6/0
[Ci sp]
+5.4 -1.5 61 +5 +5 1012.9 1000.1
18 23.05 ЮВ 1 20 км 10/0
[Ac As Ci sp]
+1.7 -1.0 82 0 0 1013.9 1000.9
21 23.05 ЮВ 1 20 км 10/0
[Ac und]
+1.1 -1.8 81 -1 -1 1014.4 1001.4
00 24.05 ЮВ 1 20 км 10/6 600 м
[Sc Ac und]
+4.1 -1.6 66 +3 +3 1015.0 1002.1 -0.1
03 24.05 ЮВ 1 20 км 10/9 600 м
[Cb cap Ac und]
+10.5 +0.3 49 +11 +11 1014.8 1002.2
06 24.05 Ю 3 10 км слаб. ливневой дождь 10/10 600 м
[Cb cap]
+11.6 +0.1 45 +10 +10 1014.5 1001.9
09 24.05 ЮЗ 3
{10}
20 км {ливн. осадки} 8/8 600 м
[Cu hum]
+15.2 -5.1 24 +15 +17 1013.1 1000.7
12 24.05 Ю 2 20 км {ливн. осадки} 10/1 600 м
[Sc Ac As Ci fib]
+15.4 -4.8 24 +16 +17 1012.6 1000.2 +16.6 0.0
15 24.05 ЮВ 1 20 км 10/0
[Ac As Cs]
+11.7 -1.9 39 +12 +12 1012.0 999.5
18 24.05 ЮВ 2 20 км 10/6 600 м
[Sc Ac und]
+11.9 -1.4 40 +11 +11 1011.1 998.6

 

Местоположение метеостанции Степановка (Томская область, Россия): широта 58.63 долгота 86.73 высота над уровнем моря 105 м.

В архиве по умолчанию представлена погода в Степановке за последнюю неделю. Архивные данные за месяц целиком и за предыдущие месяцы, начиная с января 2011 года, Вы можете получить, выбрав интересующий диапазон дат из раскрывающегося списка и нажав кнопку "Ввод!".


*Определитесь, кто Вы:
робот инопланетянин человек

Внимание! Время в таблицах - всемирное. Для получения местного времени необходимо прибавить поправку, которая равна 7 ч.

Смотрите также архив погоды в соседних городах и на ближайших метеорологических станциях:

Погода в Усть-Озерном (Томская область, Россия) (65 км)
Погода в Батурино (Томская область, Россия) (132 км)
Погода в Лосиноборске (Красноярский край, Россия) (155 км)
Погода в Тегульдете (Томская область, Россия) (170 км)
Погода в Александровском Шлюзе (Красноярский край, Россия) (171 км)
Погода в Первомайском (Томская область, Россия) (176 км)
Погода в Молчаново (Томская область, Россия) (209 км)
Погода в Сыме (Красноярский край, Россия) (213 км)
Погода в Колпашево (Томская область, Россия) (222 км)
Погода в Ванжиль-Кынаке (Томская область, Россия) (243 км)

Пояснения к столбцам:

Ветер - указаны скорость ветра в м/с - средняя за 10 мин, порывы в срок и между сроками (в фигурных скобках) и направление, откуда дует ветер: С - северный, СВ - северо-восточный, В - восточный, ЮВ - юго-восточный, Ю - южный, ЮЗ - юго-западный, З - западный, СЗ - северо-западный.
Видимость - горизонтальная дальность видимости в метрах или километрах. При видимости от 1 до 10 км при отсутствии осадков обычно наблюдается дымка, при ухудшении видимости до 1 км и менее - туман. В сухую погоду видимость может ухудшаться дымом, пылью или мглою.
Явления - указаны атмосферные явления, наблюдавшиеся в срок или в последний час перед сроком; фигурными скобками обозначены явления, наблюдавшиеся между сроками (за 1-3 часа до срока); квадратными скобками обозначены град или гололедные отложения с указанием их диаметра в мм.
Облачность - указаны через наклонную черту общая и нижняя облачность в баллах и высота нижней границы облаков в метрах; квадратными скобками обозначены формы облаков: Ci - перистые, Cs - перисто-слоистые, Cc - перисто-кучевые, Ac - высококучевые, As - высокослоистые, Sc - слоисто-кучевые, Ns - слоисто-дождевые, Cu - кучевые, Cb - кучево-дождевые. Подробнее классификацию облаков см. в Атласе облаков (PDF).
T - Температура воздуха - температура, измеренная на высоте 2 м над землей.
Td - Температура точки росы - температура, при понижении до которой содержащийся в воздухе водяной пар достигнет насыщения.
f - Относительная влажность воздуха - влажноcть воздуха, измеренная на высоте 2 м над землей.
Te - Эффективная температура - температура, которую ощущает одетый по сезону человек в тени. Характеристика душности погоды. При расчете учитывается влияние влажности воздуха и скорости ветра на теплоощущения человека.
Tes - Эффективная температура на солнце - температура, которую ощущает человек, с поправкой на солнечный нагрев. Характеристика знойности погоды. Зависит от высоты солнца над горизонтом, облачности и скорости ветра. Ночью, в пасмурную погоду, а также при ветре 12 м/с и более поправка равна нулю.
P - Атмосферное давление - приведенное к уровню моря атмосферное давление.
Po - Атмосферное давление - измеренное на уровне метеостанции атмосферное давление.
Tmin - Минимальная температура - минимум температуры воздуха на высоте 2 м над землей.
Tmax - Максимальная температура - максимум температуры воздуха на высоте 2 м над землей.
R - Количество осадков - Количество выпавших осадков за период времени, мм. При наведении курсора мыши на число - период времени, за который выпало указанное количество осадков.
R24 - Количество осадков - Количество выпавших осадков за 24 часа, мм.
S - Снежный покров - Высота снежного покрова, см. При наведении курсора мыши на число - состояние снежного покрова и степень покрытия местности в баллах.